Time,TemperatureF,DewpointF,PressureIn,WindDirection,WindDirectionDegrees,WindSpeedMPH,WindSpeedGustMPH,Humidity,HourlyPrecipIn,Conditions,Clouds,dailyrainin,SoftwareType,DateUTC
2013-10-14 00:01:00,80.5,73.8,30.01,ESE,115,4.0,5.0,80,0.00,,---,0.00,VWS V14.01,2013-10-14 05:01:00,
2013-10-14 00:06:00,80.5,73.4,30.01,ESE,121,3.0,3.0,79,0.00,,---,0.00,VWS V14.01,2013-10-14 05:06:00,
2013-10-14 00:11:00,80.5,73.4,30.01,ESE,111,4.0,5.0,79,0.00,,---,0.00,VWS V14.01,2013-10-14 05:11:00,
2013-10-14 00:16:00,80.5,73.4,30.01,ESE,122,3.0,3.0,79,0.00,,---,0.00,VWS V14.01,2013-10-14 05:16:00,
2013-10-14 00:20:00,80.4,73.3,30.00,ESE,109,2.0,4.0,79,0.00,,---,0.00,VWS V14.01,2013-10-14 05:20:00,
2013-10-14 00:25:00,80.3,73.2,30.01,ESE,114,3.0,4.0,79,0.00,,---,0.00,VWS V14.01,2013-10-14 05:25:00,
2013-10-14 00:30:00,80.3,73.2,30.00,ESE,111,1.0,3.0,79,0.00,,---,0.00,VWS V14.01,2013-10-14 05:30:00,
2013-10-14 00:35:00,80.2,73.5,30.00,ESE,109,1.0,3.0,80,0.00,,---,0.00,VWS V14.01,2013-10-14 05:35:00,
2013-10-14 00:40:00,80.2,73.5,30.00,ESE,109,1.0,3.0,80,0.00,,---,0.00,VWS V14.01,2013-10-14 05:40:00,
2013-10-14 00:45:00,80.1,73.4,30.00,ESE,114,1.0,3.0,80,0.00,,---,0.00,VWS V14.01,2013-10-14 05:45:00,
2013-10-14 00:50:00,80.0,73.3,30.00,ESE,115,3.0,3.0,80,0.00,,---,0.00,VWS V14.01,2013-10-14 05:50:00,
2013-10-14 00:55:00,80.0,73.3,30.00,ESE,117,0.0,2.0,80,0.00,,---,0.00,VWS V14.01,2013-10-14 05:55:00,
2013-10-14 01:00:00,79.9,73.2,30.00,ESE,121,2.0,3.0,80,0.00,,---,0.00,VWS V14.01,2013-10-14 06:00:00,
2013-10-14 01:05:00,79.8,73.1,30.00,ESE,121,0.0,2.0,80,0.00,,---,0.00,VWS V14.01,2013-10-14 06:05:00,
2013-10-14 01:11:00,79.7,73.0,30.00,ESE,117,2.0,2.0,80,0.00,,---,0.00,VWS V14.01,2013-10-14 06:11:00,
2013-10-14 01:15:00,79.6,72.9,30.00,ESE,117,0.0,2.0,80,0.00,,---,0.00,VWS V14.01,2013-10-14 06:15:00,
2013-10-14 01:20:00,79.6,72.9,30.00,ESE,117,0.0,0.0,80,0.00,,---,0.00,VWS V14.01,2013-10-14 06:20:00,
2013-10-14 01:25:00,79.6,72.9,30.00,ESE,117,1.0,1.0,80,0.00,,---,0.00,VWS V14.01,2013-10-14 06:25:00,
2013-10-14 01:30:00,79.5,72.8,30.00,ESE,117,0.0,0.0,80,0.00,,---,0.00,VWS V14.01,2013-10-14 06:30:00,
2013-10-14 01:35:00,79.5,72.8,30.00,ESE,117,0.0,0.0,80,0.00,,---,0.00,VWS V14.01,2013-10-14 06:35:00,
2013-10-14 01:40:00,79.4,72.7,30.00,ESE,117,0.0,0.0,80,0.00,,---,0.00,VWS V14.01,2013-10-14 06:40:00,
2013-10-14 01:45:00,79.4,72.7,30.00,ESE,117,0.0,0.0,80,0.00,,---,0.00,VWS V14.01,2013-10-14 06:45:00,
2013-10-14 01:50:00,79.4,72.7,30.00,ESE,117,0.0,0.0,80,0.00,,---,0.00,VWS V14.01,2013-10-14 06:50:00,
2013-10-14 01:55:00,79.4,72.7,30.00,ESE,117,0.0,0.0,80,0.00,,---,0.00,VWS V14.01,2013-10-14 06:55:00,
2013-10-14 02:00:00,79.4,72.7,30.00,ESE,117,0.0,0.0,80,0.00,,---,0.00,VWS V14.01,2013-10-14 07:00:00,
2013-10-14 02:05:00,79.3,72.6,30.00,ESE,117,0.0,0.0,80,0.00,,---,0.00,VWS V14.01,2013-10-14 07:05:00,
2013-10-14 02:11:00,79.3,73.0,30.01,ESE,117,0.0,0.0,81,0.00,,---,0.00,VWS V14.01,2013-10-14 07:11:00,
2013-10-14 02:16:00,79.2,72.9,30.01,SE,128,0.0,0.0,81,0.00,,---,0.00,VWS V14.01,2013-10-14 07:16:00,
2013-10-14 02:21:00,79.1,72.8,30.00,SE,128,0.0,0.0,81,0.00,,---,0.00,VWS V14.01,2013-10-14 07:21:00,
2013-10-14 02:26:00,78.9,72.6,30.00,SE,126,0.0,0.0,81,0.00,,---,0.00,VWS V14.01,2013-10-14 07:26:00,
2013-10-14 02:31:00,78.8,72.5,30.00,SE,140,5.0,5.0,81,0.00,,---,0.00,VWS V14.01,2013-10-14 07:31:00,
2013-10-14 02:36:00,78.8,72.5,30.00,SE,144,0.0,1.0,81,0.00,,---,0.00,VWS V14.01,2013-10-14 07:36:00,
2013-10-14 02:41:00,78.8,72.5,29.99,SE,134,6.0,6.0,81,0.00,,---,0.00,VWS V14.01,2013-10-14 07:41:00,
2013-10-14 02:45:00,78.8,72.5,29.99,SE,125,6.0,10.0,81,0.00,,---,0.00,VWS V14.01,2013-10-14 07:45:00,
2013-10-14 02:50:00,78.9,72.2,29.99,ESE,123,7.0,7.0,80,0.00,,---,0.00,VWS V14.01,2013-10-14 07:50:00,
2013-10-14 02:55:00,79.0,72.3,29.98,SE,137,1.0,5.0,80,0.00,,---,0.00,VWS V14.01,2013-10-14 07:55:00,
2013-10-14 03:00:00,79.1,72.4,29.98,SE,127,3.0,6.0,80,0.00,,---,0.00,VWS V14.01,2013-10-14 08:00:00,
2013-10-14 03:05:00,79.1,72.4,29.98,SE,136,2.0,3.0,80,0.00,,---,0.00,VWS V14.01,2013-10-14 08:05:00,
2013-10-14 03:10:00,79.1,72.8,29.98,SE,134,2.0,2.0,81,0.00,,---,0.00,VWS V14.01,2013-10-14 08:10:00,
2013-10-14 03:15:00,79.0,72.7,29.98,SE,132,3.0,3.0,81,0.00,,---,0.00,VWS V14.01,2013-10-14 08:15:00,
2013-10-14 03:20:00,78.9,72.6,29.97,ESE,118,3.0,3.0,81,0.00,,---,0.00,VWS V14.01,2013-10-14 08:20:00,
2013-10-14 03:25:00,78.8,72.5,29.97,ESE,123,3.0,3.0,81,0.00,,---,0.00,VWS V14.01,2013-10-14 08:25:00,
2013-10-14 03:30:00,78.7,72.4,29.97,ESE,118,1.0,1.0,81,0.00,,---,0.00,VWS V14.01,2013-10-14 08:30:00,
2013-10-14 03:35:00,78.7,72.8,29.97,SE,125,3.0,3.0,82,0.00,,---,0.00,VWS V14.01,2013-10-14 08:35:00,
2013-10-14 03:40:00,78.7,72.8,29.97,ESE,120,1.0,2.0,82,0.00,,---,0.00,VWS V14.01,2013-10-14 08:40:00,
2013-10-14 03:45:00,78.6,72.7,29.96,ESE,120,1.0,2.0,82,0.00,,---,0.00,VWS V14.01,2013-10-14 08:45:00,
2013-10-14 03:50:00,78.6,72.7,29.96,ESE,121,4.0,4.0,82,0.00,,---,0.00,VWS V14.01,2013-10-14 08:50:00,
2013-10-14 03:55:00,78.5,72.6,29.96,SE,139,2.0,2.0,82,0.00,,---,0.00,VWS V14.01,2013-10-14 08:55:00,
2013-10-14 04:00:00,78.5,72.6,29.96,SE,138,1.0,2.0,82,0.00,,---,0.00,VWS V14.01,2013-10-14 09:00:00,
2013-10-14 04:05:00,78.5,72.6,29.95,SE,132,3.0,3.0,82,0.00,,---,0.00,VWS V14.01,2013-10-14 09:05:00,
2013-10-14 04:10:00,78.5,72.6,29.95,SE,130,2.0,3.0,82,0.00,,---,0.00,VWS V14.01,2013-10-14 09:10:00,
2013-10-14 04:15:00,78.5,72.6,29.95,ESE,121,3.0,3.0,82,0.00,,---,0.00,VWS V14.01,2013-10-14 09:15:00,
2013-10-14 04:20:00,78.6,72.7,29.95,SE,128,1.0,1.0,82,0.00,,---,0.00,VWS V14.01,2013-10-14 09:20:00,
2013-10-14 04:25:00,78.5,72.6,29.95,SE,128,3.0,3.0,82,0.00,,---,0.00,VWS V14.01,2013-10-14 09:25:00,
2013-10-14 04:30:00,78.5,72.6,29.95,ESE,122,0.0,0.0,82,0.00,,---,0.00,VWS V14.01,2013-10-14 09:30:00,
2013-10-14 04:35:00,78.4,72.4,29.95,SE,144,0.0,0.0,82,0.00,,---,0.00,VWS V14.01,2013-10-14 09:35:00,
2013-10-14 04:40:00,78.4,72.4,29.95,SE,138,1.0,1.0,82,0.00,,---,0.00,VWS V14.01,2013-10-14 09:40:00,
2013-10-14 04:45:00,78.3,72.4,29.95,SSE,156,3.0,3.0,82,0.00,,---,0.00,VWS V14.01,2013-10-14 09:45:00,
2013-10-14 04:50:00,78.2,72.3,29.95,SSE,167,4.0,6.0,82,0.00,,---,0.00,VWS V14.01,2013-10-14 09:50:00,
2013-10-14 04:55:00,78.1,72.2,29.96,SSE,165,2.0,2.0,82,0.00,,---,0.00,VWS V14.01,2013-10-14 09:55:00,
2013-10-14 05:00:00,78.1,72.2,29.95,SSE,164,0.0,1.0,82,0.00,,---,0.00,VWS V14.01,2013-10-14 10:00:00,
2013-10-14 05:05:00,78.0,72.1,29.95,SSE,164,3.0,3.0,82,0.00,,---,0.00,VWS V14.01,2013-10-14 10:05:00,
2013-10-14 05:10:00,78.0,72.1,29.95,SSE,164,0.0,3.0,82,0.00,,---,0.00,VWS V14.01,2013-10-14 10:10:00,
2013-10-14 05:15:00,78.0,72.1,29.95,SSE,164,0.0,0.0,82,0.00,,---,0.00,VWS V14.01,2013-10-14 10:15:00,
2013-10-14 05:20:00,78.0,72.1,29.95,SSE,164,0.0,1.0,82,0.00,,---,0.00,VWS V14.01,2013-10-14 10:20:00,
2013-10-14 05:25:00,78.1,72.2,29.96,SSE,163,2.0,2.0,82,0.00,,---,0.00,VWS V14.01,2013-10-14 10:25:00,
2013-10-14 05:30:00,78.1,72.2,29.96,SSE,163,0.0,1.0,82,0.00,,---,0.00,VWS V14.01,2013-10-14 10:30:00,
2013-10-14 05:35:00,78.2,72.3,29.96,SSE,148,0.0,2.0,82,0.00,,---,0.00,VWS V14.01,2013-10-14 10:35:00,
2013-10-14 05:40:00,78.3,72.4,29.96,SE,144,0.0,3.0,82,0.00,,---,0.00,VWS V14.01,2013-10-14 10:40:00,
2013-10-14 05:45:00,78.4,72.4,29.96,SE,141,1.0,3.0,82,0.00,,---,0.00,VWS V14.01,2013-10-14 10:45:00,
2013-10-14 05:50:00,78.5,72.6,29.96,SE,137,0.0,5.0,82,0.00,,---,0.00,VWS V14.01,2013-10-14 10:50:00,
2013-10-14 05:55:00,78.5,72.6,29.96,SSE,162,3.0,5.0,82,0.00,,---,0.00,VWS V14.01,2013-10-14 10:55:00,
2013-10-14 06:00:00,78.5,72.6,29.96,SSE,163,3.0,5.0,82,0.00,,---,0.00,VWS V14.01,2013-10-14 11:00:00,
2013-10-14 06:05:00,78.5,72.6,29.96,SSE,167,5.0,6.0,82,0.00,,---,0.00,VWS V14.01,2013-10-14 11:05:00,
2013-10-14 06:10:00,78.4,72.4,29.96,SSE,167,4.0,5.0,82,0.00,,---,0.00,VWS V14.01,2013-10-14 11:10:00,
2013-10-14 06:15:00,78.4,72.4,29.96,SSE,165,5.0,6.0,82,0.00,,---,0.00,VWS V14.01,2013-10-14 11:15:00,
2013-10-14 06:20:00,78.4,72.4,29.96,South,169,2.0,3.0,82,0.00,,---,0.00,VWS V14.01,2013-10-14 11:20:00,
2013-10-14 06:25:00,78.3,72.4,29.96,South,180,3.0,3.0,82,0.00,,---,0.00,VWS V14.01,2013-10-14 11:25:00,
2013-10-14 06:30:00,78.3,72.4,29.96,South,179,2.0,4.0,82,0.00,,---,0.00,VWS V14.01,2013-10-14 11:30:00,
2013-10-14 06:35:00,78.2,72.3,29.97,South,180,1.0,2.0,82,0.00,,---,0.00,VWS V14.01,2013-10-14 11:35:00,
2013-10-14 06:40:00,78.2,72.3,29.97,South,180,0.0,0.0,82,0.00,,---,0.00,VWS V14.01,2013-10-14 11:40:00,
2013-10-14 06:45:00,78.1,72.2,29.97,South,179,0.0,0.0,82,0.00,,---,0.00,VWS V14.01,2013-10-14 11:45:00,
2013-10-14 06:50:00,77.9,72.0,29.97,South,179,0.0,0.0,82,0.00,,---,0.00,VWS V14.01,2013-10-14 11:50:00,
2013-10-14 06:55:00,77.8,71.9,29.97,South,180,0.0,0.0,82,0.00,,---,0.00,VWS V14.01,2013-10-14 11:55:00,
2013-10-14 07:00:00,77.7,71.8,29.97,South,180,0.0,0.0,82,0.00,,---,0.00,VWS V14.01,2013-10-14 12:00:00,
2013-10-14 07:05:00,77.6,71.7,29.97,South,180,0.0,0.0,82,0.00,,---,0.00,VWS V14.01,2013-10-14 12:05:00,
2013-10-14 07:10:00,77.5,71.6,29.98,South,179,0.0,0.0,82,0.00,,---,0.00,VWS V14.01,2013-10-14 12:10:00,
2013-10-14 07:15:00,77.4,71.8,29.98,South,179,0.0,0.0,83,0.00,,---,0.00,VWS V14.01,2013-10-14 12:15:00,
2013-10-14 07:20:00,77.4,71.8,29.98,South,179,0.0,0.0,83,0.00,,---,0.00,VWS V14.01,2013-10-14 12:20:00,
2013-10-14 07:25:00,77.3,71.7,29.98,South,180,0.0,0.0,83,0.00,,---,0.00,VWS V14.01,2013-10-14 12:25:00,
2013-10-14 07:30:00,77.2,71.6,29.98,South,180,0.0,0.0,83,0.00,,---,0.00,VWS V14.01,2013-10-14 12:30:00,
2013-10-14 07:35:00,77.1,71.5,29.98,South,180,0.0,0.0,83,0.00,,---,0.00,VWS V14.01,2013-10-14 12:35:00,
2013-10-14 07:40:00,77.1,71.5,29.98,South,179,0.0,0.0,83,0.00,,---,0.00,VWS V14.01,2013-10-14 12:40:00,
2013-10-14 07:45:00,77.0,71.4,29.99,South,180,0.0,0.0,83,0.00,,---,0.00,VWS V14.01,2013-10-14 12:45:00,
2013-10-14 07:50:00,77.1,71.5,29.98,South,179,0.0,0.0,83,0.00,,---,0.00,VWS V14.01,2013-10-14 12:50:00,
2013-10-14 07:55:00,77.1,71.5,29.99,South,180,0.0,0.0,83,0.00,,---,0.00,VWS V14.01,2013-10-14 12:55:00,
2013-10-14 08:00:00,77.1,71.5,29.99,South,180,0.0,0.0,83,0.00,,---,0.00,VWS V14.01,2013-10-14 13:00:00,
2013-10-14 08:05:00,77.2,71.6,29.99,South,179,0.0,0.0,83,0.00,,---,0.00,VWS V14.01,2013-10-14 13:05:00,
2013-10-14 08:10:00,77.2,71.6,29.99,South,173,0.0,0.0,83,0.00,,---,0.00,VWS V14.01,2013-10-14 13:10:00,
2013-10-14 08:14:00,77.3,71.7,29.98,South,173,0.0,0.0,83,0.00,,---,0.00,VWS V14.01,2013-10-14 13:14:00,
2013-10-14 08:19:00,77.4,71.8,29.98,South,173,0.0,0.0,83,0.00,,---,0.00,VWS V14.01,2013-10-14 13:19:00,
2013-10-14 08:24:00,77.6,72.0,29.99,South,173,0.0,0.0,83,0.00,,---,0.00,VWS V14.01,2013-10-14 13:24:00,
2013-10-14 08:29:00,77.9,72.3,29.99,South,173,0.0,0.0,83,0.00,,---,0.00,VWS V14.01,2013-10-14 13:29:00,
2013-10-14 08:34:00,78.2,72.6,29.99,South,173,1.0,2.0,83,0.00,,---,0.00,VWS V14.01,2013-10-14 13:34:00,
2013-10-14 08:39:00,78.5,72.6,29.99,South,172,0.0,0.0,82,0.00,,---,0.00,VWS V14.01,2013-10-14 13:39:00,
2013-10-14 08:44:00,78.9,72.9,30.00,SSE,167,0.0,0.0,82,0.00,,---,0.00,VWS V14.01,2013-10-14 13:44:00,
2013-10-14 08:49:00,79.2,72.9,30.00,SSE,167,0.0,1.0,81,0.00,,---,0.00,VWS V14.01,2013-10-14 13:49:00,
2013-10-14 08:54:00,79.4,73.1,30.00,SSE,166,0.0,0.0,81,0.00,,---,0.00,VWS V14.01,2013-10-14 13:54:00,
2013-10-14 08:59:00,79.7,73.4,30.00,SSE,165,2.0,2.0,81,0.00,,---,0.00,VWS V14.01,2013-10-14 13:59:00,
2013-10-14 09:04:00,79.8,73.4,29.99,SSE,157,1.0,1.0,81,0.00,,---,0.00,VWS V14.01,2013-10-14 14:04:00,
2013-10-14 09:09:00,80.0,73.3,30.00,ESE,106,1.0,3.0,80,0.00,,---,0.00,VWS V14.01,2013-10-14 14:09:00,
2013-10-14 09:14:00,80.3,73.6,29.99,ESE,112,3.0,3.0,80,0.00,,---,0.00,VWS V14.01,2013-10-14 14:14:00,
2013-10-14 09:19:00,80.5,73.8,29.99,SE,141,1.0,3.0,80,0.00,,---,0.00,VWS V14.01,2013-10-14 14:19:00,
2013-10-14 09:24:00,80.8,74.1,29.99,ESE,113,3.0,4.0,80,0.00,,---,0.00,VWS V14.01,2013-10-14 14:24:00,
2013-10-14 09:29:00,81.1,74.3,29.99,ESE,105,2.0,2.0,80,0.00,,---,0.00,VWS V14.01,2013-10-14 14:29:00,
2013-10-14 09:34:00,81.1,74.0,30.00,SSE,167,8.0,10.0,79,0.00,,---,0.00,VWS V14.01,2013-10-14 14:34:00,
2013-10-14 09:39:00,80.9,73.4,30.00,SE,142,8.0,8.0,78,0.00,,---,0.00,VWS V14.01,2013-10-14 14:39:00,
2013-10-14 09:44:00,80.5,73.0,30.00,SE,134,7.0,9.0,78,0.00,,---,0.00,VWS V14.01,2013-10-14 14:44:00,
2013-10-14 09:49:00,80.3,72.8,30.00,SE,133,12.0,12.0,78,0.00,,---,0.00,VWS V14.01,2013-10-14 14:49:00,
2013-10-14 09:54:00,80.2,73.1,30.00,SE,138,4.0,5.0,79,0.00,,---,0.00,VWS V14.01,2013-10-14 14:54:00,
2013-10-14 09:59:00,80.1,73.0,30.00,SE,140,2.0,4.0,79,0.00,,---,0.00,VWS V14.01,2013-10-14 14:59:00,
2013-10-14 10:04:00,80.0,72.9,30.00,SE,129,5.0,5.0,79,0.00,,---,0.00,VWS V14.01,2013-10-14 15:04:00,
2013-10-14 10:09:00,80.3,73.2,30.00,SSE,148,6.0,6.0,79,0.00,,---,0.00,VWS V14.01,2013-10-14 15:09:00,
2013-10-14 10:14:00,80.6,73.1,30.00,SSE,157,4.0,7.0,78,0.00,,---,0.00,VWS V14.01,2013-10-14 15:14:00,
2013-10-14 10:19:00,80.9,73.4,30.00,SE,141,5.0,9.0,78,0.00,,---,0.00,VWS V14.01,2013-10-14 15:19:00,
2013-10-14 10:24:00,81.1,73.6,30.00,SE,139,10.0,12.0,78,0.00,,---,0.00,VWS V14.01,2013-10-14 15:24:00,
2013-10-14 10:29:00,81.0,73.5,30.00,ESE,123,7.0,12.0,78,0.00,,---,0.00,VWS V14.01,2013-10-14 15:29:00,
2013-10-14 10:34:00,80.7,73.2,30.00,SE,135,6.0,11.0,78,0.00,,---,0.00,VWS V14.01,2013-10-14 15:34:00,
2013-10-14 10:39:00,80.6,72.7,30.00,SE,128,7.0,8.0,77,0.00,,---,0.00,VWS V14.01,2013-10-14 15:39:00,
2013-10-14 10:44:00,80.9,72.6,30.00,SE,128,6.0,16.0,76,0.00,,---,0.00,VWS V14.01,2013-10-14 15:44:00,
2013-10-14 10:49:00,81.2,72.9,30.00,SE,129,4.0,7.0,76,0.00,,---,0.00,VWS V14.01,2013-10-14 15:49:00,
2013-10-14 10:54:00,81.5,73.6,30.00,SE,141,7.0,7.0,77,0.00,,---,0.00,VWS V14.01,2013-10-14 15:54:00,
2013-10-14 10:59:00,82.3,74.4,29.99,SSE,165,4.0,9.0,77,0.00,,---,0.00,VWS V14.01,2013-10-14 15:59:00,
2013-10-14 11:04:00,82.5,74.6,29.99,SSE,168,11.0,11.0,77,0.00,,---,0.00,VWS V14.01,2013-10-14 16:04:00,
2013-10-14 11:09:00,82.4,74.5,29.99,South,182,10.0,14.0,77,0.00,,---,0.00,VWS V14.01,2013-10-14 16:09:00,
2013-10-14 11:14:00,81.9,74.4,30.00,South,172,4.0,9.0,78,0.00,,---,0.00,VWS V14.01,2013-10-14 16:14:00,
2013-10-14 11:19:00,81.1,74.0,30.00,SSE,167,14.0,24.0,79,0.04,,---,0.04,VWS V14.01,2013-10-14 16:19:00,
2013-10-14 11:24:00,79.4,72.7,30.00,South,182,13.0,14.0,80,0.07,,---,0.07,VWS V14.01,2013-10-14 16:24:00,
2013-10-14 11:29:00,78.1,71.8,30.00,SSE,163,9.0,14.0,81,0.09,,---,0.09,VWS V14.01,2013-10-14 16:29:00,
2013-10-14 11:34:00,77.3,71.4,30.00,SE,144,3.0,6.0,82,0.11,,---,0.11,VWS V14.01,2013-10-14 16:34:00,
2013-10-14 11:39:00,77.0,71.4,30.00,SSE,153,3.0,7.0,83,0.11,,---,0.11,VWS V14.01,2013-10-14 16:39:00,
2013-10-14 11:44:00,77.0,71.4,29.99,South,179,7.0,10.0,83,0.11,,---,0.11,VWS V14.01,2013-10-14 16:44:00,
2013-10-14 11:49:00,77.1,71.5,29.99,South,183,9.0,10.0,83,0.11,,---,0.11,VWS V14.01,2013-10-14 16:49:00,
2013-10-14 11:54:00,77.3,71.7,29.99,South,182,5.0,10.0,83,0.11,,---,0.11,VWS V14.01,2013-10-14 16:54:00,
2013-10-14 11:59:00,77.2,71.6,29.99,South,188,9.0,15.0,83,0.11,,---,0.11,VWS V14.01,2013-10-14 16:59:00,
2013-10-14 12:04:00,76.8,71.2,29.99,SSE,160,9.0,12.0,83,0.11,,---,0.11,VWS V14.01,2013-10-14 17:04:00,
2013-10-14 12:09:00,76.9,71.3,29.99,South,171,7.0,9.0,83,0.11,,---,0.11,VWS V14.01,2013-10-14 17:09:00,
2013-10-14 12:14:00,77.2,71.6,29.98,SSE,155,0.0,1.0,83,0.11,,---,0.11,VWS V14.01,2013-10-14 17:14:00,
2013-10-14 12:19:00,77.5,71.9,29.98,SSE,155,3.0,3.0,83,0.10,,---,0.11,VWS V14.01,2013-10-14 17:19:00,
2013-10-14 12:24:00,77.8,72.2,29.97,SSE,159,3.0,5.0,83,0.04,,---,0.11,VWS V14.01,2013-10-14 17:24:00,
2013-10-14 12:29:00,78.2,72.6,29.97,SSE,159,3.0,4.0,83,0.02,,---,0.11,VWS V14.01,2013-10-14 17:29:00,
2013-10-14 12:34:00,78.7,73.1,29.97,SSE,163,0.0,1.0,83,0.00,,---,0.11,VWS V14.01,2013-10-14 17:34:00,
2013-10-14 12:39:00,79.2,73.6,29.97,SSE,166,0.0,1.0,83,0.00,,---,0.11,VWS V14.01,2013-10-14 17:39:00,
2013-10-14 12:44:00,79.8,73.8,29.96,SE,136,6.0,6.0,82,0.00,,---,0.11,VWS V14.01,2013-10-14 17:44:00,
2013-10-14 12:49:00,80.4,74.0,29.96,SE,138,5.0,9.0,81,0.00,,---,0.11,VWS V14.01,2013-10-14 17:49:00,
2013-10-14 12:54:00,80.9,74.2,29.95,ESE,119,3.0,9.0,80,0.00,,---,0.11,VWS V14.01,2013-10-14 17:54:00,
2013-10-14 12:59:00,81.2,74.1,29.95,East,101,4.0,5.0,79,0.00,,---,0.11,VWS V14.01,2013-10-14 17:59:00,
2013-10-14 13:04:00,81.6,74.1,29.95,SE,138,4.0,6.0,78,0.00,,---,0.11,VWS V14.01,2013-10-14 18:04:00,
2013-10-14 13:09:00,81.9,74.0,29.95,SE,136,6.0,10.0,77,0.00,,---,0.11,VWS V14.01,2013-10-14 18:09:00,
2013-10-14 13:14:00,82.0,73.7,29.95,SSE,149,9.0,12.0,76,0.00,,---,0.11,VWS V14.01,2013-10-14 18:14:00,
2013-10-14 13:19:00,82.2,73.9,29.94,SSE,149,7.0,7.0,76,0.00,,---,0.11,VWS V14.01,2013-10-14 18:19:00,
2013-10-14 13:24:00,82.3,73.6,29.94,SSE,149,5.0,10.0,75,0.00,,---,0.11,VWS V14.01,2013-10-14 18:24:00,
2013-10-14 13:29:00,82.4,73.7,29.94,SSE,150,5.0,9.0,75,0.00,,---,0.11,VWS V14.01,2013-10-14 18:29:00,
2013-10-14 13:34:00,82.5,73.8,29.94,SE,136,9.0,9.0,75,0.00,,---,0.11,VWS V14.01,2013-10-14 18:34:00,
2013-10-14 13:39:00,82.5,73.8,29.93,SE,142,6.0,6.0,75,0.00,,---,0.11,VWS V14.01,2013-10-14 18:39:00,
2013-10-14 13:44:00,82.6,73.9,29.93,SSE,159,5.0,10.0,75,0.00,,---,0.11,VWS V14.01,2013-10-14 18:44:00,
2013-10-14 13:48:00,82.5,73.8,29.93,SSE,165,10.0,13.0,75,0.00,,---,0.11,VWS V14.01,2013-10-14 18:48:00,
2013-10-14 13:53:00,82.3,73.6,29.93,ESE,123,9.0,13.0,75,0.00,,---,0.11,VWS V14.01,2013-10-14 18:53:00,
2013-10-14 13:58:00,82.2,73.5,29.93,SE,142,8.0,8.0,75,0.00,,---,0.11,VWS V14.01,2013-10-14 18:58:00,
2013-10-14 14:03:00,82.2,73.5,29.92,SE,142,7.0,7.0,75,0.00,,---,0.11,VWS V14.01,2013-10-14 19:03:00,
2013-10-14 14:08:00,82.2,73.9,29.92,SE,138,2.0,7.0,76,0.00,,---,0.11,VWS V14.01,2013-10-14 19:08:00,
2013-10-14 14:13:00,82.0,73.7,29.92,SSE,147,4.0,10.0,76,0.00,,---,0.11,VWS V14.01,2013-10-14 19:13:00,
2013-10-14 14:18:00,81.9,73.6,29.92,SSE,150,3.0,7.0,76,0.00,,---,0.11,VWS V14.01,2013-10-14 19:18:00,
2013-10-14 14:23:00,81.9,73.6,29.91,SE,137,5.0,7.0,76,0.00,,---,0.11,VWS V14.01,2013-10-14 19:23:00,
2013-10-14 14:28:00,82.0,74.1,29.92,SE,132,5.0,5.0,77,0.00,,---,0.11,VWS V14.01,2013-10-14 19:28:00,
2013-10-14 14:33:00,82.0,73.7,29.91,ESE,109,10.0,12.0,76,0.00,,---,0.11,VWS V14.01,2013-10-14 19:33:00,
2013-10-14 14:38:00,82.0,73.7,29.91,SE,134,4.0,11.0,76,0.00,,---,0.11,VWS V14.01,2013-10-14 19:38:00,
2013-10-14 14:43:00,82.1,73.8,29.91,SSE,150,9.0,12.0,76,0.00,,---,0.11,VWS V14.01,2013-10-14 19:43:00,
2013-10-14 14:48:00,82.3,74.0,29.91,SSE,149,10.0,10.0,76,0.00,,---,0.11,VWS V14.01,2013-10-14 19:48:00,
2013-10-14 14:53:00,82.3,73.6,29.91,ESE,117,5.0,9.0,75,0.00,,---,0.11,VWS V14.01,2013-10-14 19:53:00,
2013-10-14 14:58:00,82.2,73.5,29.90,SE,142,9.0,12.0,75,0.00,,---,0.11,VWS V14.01,2013-10-14 19:58:00,
2013-10-14 15:03:00,82.3,74.0,29.90,ESE,105,7.0,11.0,76,0.00,,---,0.11,VWS V14.01,2013-10-14 20:03:00,
2013-10-14 15:08:00,82.4,73.7,29.90,SE,126,5.0,8.0,75,0.00,,---,0.11,VWS V14.01,2013-10-14 20:08:00,
2013-10-14 15:13:00,82.6,73.9,29.90,SSE,160,6.0,13.0,75,0.00,,---,0.11,VWS V14.01,2013-10-14 20:13:00,
2013-10-14 15:18:00,82.7,74.0,29.90,South,173,11.0,12.0,75,0.00,,---,0.11,VWS V14.01,2013-10-14 20:18:00,
2013-10-14 15:23:00,82.7,74.0,29.90,SE,139,15.0,15.0,75,0.00,,---,0.11,VWS V14.01,2013-10-14 20:23:00,
2013-10-14 15:28:00,83.0,74.3,29.90,SE,132,13.0,13.0,75,0.00,,---,0.11,VWS V14.01,2013-10-14 20:28:00,
2013-10-14 15:33:00,83.0,74.3,29.90,ESE,122,13.0,13.0,75,0.00,,---,0.11,VWS V14.01,2013-10-14 20:33:00,
2013-10-14 15:38:00,82.8,74.1,29.90,SE,140,12.0,13.0,75,0.00,,---,0.11,VWS V14.01,2013-10-14 20:38:00,
2013-10-14 15:43:00,82.6,73.9,29.90,ESE,107,9.0,14.0,75,0.00,,---,0.11,VWS V14.01,2013-10-14 20:43:00,
2013-10-14 15:48:00,82.9,73.8,29.89,ESE,117,9.0,9.0,74,0.00,,---,0.11,VWS V14.01,2013-10-14 20:48:00,
2013-10-14 15:53:00,83.5,74.3,29.89,SE,146,5.0,7.0,74,0.00,,---,0.11,VWS V14.01,2013-10-14 20:53:00,
2013-10-14 15:58:00,84.0,74.0,29.89,SE,138,10.0,10.0,72,0.00,,---,0.11,VWS V14.01,2013-10-14 20:58:00,
2013-10-14 16:02:00,84.1,74.1,29.89,SE,145,4.0,10.0,72,0.00,,---,0.11,VWS V14.01,2013-10-14 21:02:00,
2013-10-14 16:07:00,84.1,73.7,29.88,SSE,149,15.0,19.0,71,0.00,,---,0.11,VWS V14.01,2013-10-14 21:07:00,
2013-10-14 16:12:00,84.0,74.0,29.88,ESE,118,11.0,18.0,72,0.00,,---,0.11,VWS V14.01,2013-10-14 21:12:00,
2013-10-14 16:17:00,83.9,73.9,29.89,SE,126,11.0,16.0,72,0.00,,---,0.11,VWS V14.01,2013-10-14 21:17:00,
2013-10-14 16:22:00,83.7,73.7,29.88,ESE,123,13.0,15.0,72,0.00,,---,0.11,VWS V14.01,2013-10-14 21:22:00,
2013-10-14 16:27:00,83.9,73.9,29.88,SE,139,6.0,14.0,72,0.00,,---,0.11,VWS V14.01,2013-10-14 21:27:00,
2013-10-14 16:32:00,84.1,74.1,29.88,SSE,148,12.0,18.0,72,0.00,,---,0.11,VWS V14.01,2013-10-14 21:32:00,
2013-10-14 16:37:00,84.1,73.7,29.88,SE,132,12.0,14.0,71,0.00,,---,0.11,VWS V14.01,2013-10-14 21:37:00,
2013-10-14 16:42:00,83.8,73.4,29.88,SE,130,16.0,16.0,71,0.00,,---,0.11,VWS V14.01,2013-10-14 21:42:00,
2013-10-14 16:47:00,83.5,73.9,29.88,SE,138,12.0,18.0,73,0.00,,---,0.11,VWS V14.01,2013-10-14 21:47:00,
2013-10-14 16:52:00,83.4,73.4,29.88,SE,132,8.0,8.0,72,0.00,,---,0.11,VWS V14.01,2013-10-14 21:52:00,
2013-10-14 16:57:00,83.4,73.4,29.88,SE,129,11.0,12.0,72,0.00,,---,0.11,VWS V14.01,2013-10-14 21:57:00,
2013-10-14 17:01:00,83.4,73.4,29.88,NE,56,9.0,9.0,72,0.00,,---,0.11,VWS V14.01,2013-10-14 22:01:00,
2013-10-14 17:06:00,83.2,73.2,29.88,ESE,119,5.0,13.0,72,0.00,,---,0.11,VWS V14.01,2013-10-14 22:06:00,
2013-10-14 17:11:00,83.3,73.3,29.88,SE,129,16.0,16.0,72,0.00,,---,0.11,VWS V14.01,2013-10-14 22:11:00,
2013-10-14 17:16:00,83.3,73.3,29.88,SE,130,7.0,14.0,72,0.00,,---,0.11,VWS V14.01,2013-10-14 22:16:00,
2013-10-14 17:21:00,83.4,73.4,29.88,SE,128,3.0,5.0,72,0.00,,---,0.11,VWS V14.01,2013-10-14 22:21:00,
2013-10-14 17:26:00,83.1,73.1,29.88,SSE,148,11.0,13.0,72,0.00,,---,0.11,VWS V14.01,2013-10-14 22:26:00,
2013-10-14 17:31:00,82.9,73.4,29.89,SE,126,13.0,18.0,73,0.00,,---,0.11,VWS V14.01,2013-10-14 22:31:00,
2013-10-14 17:36:00,82.8,73.7,29.89,SE,124,5.0,11.0,74,0.00,,---,0.11,VWS V14.01,2013-10-14 22:36:00,
2013-10-14 17:41:00,82.9,73.8,29.88,ESE,113,7.0,7.0,74,0.00,,---,0.11,VWS V14.01,2013-10-14 22:41:00,
2013-10-14 17:46:00,82.7,73.2,29.89,ESE,122,6.0,10.0,73,0.00,,---,0.11,VWS V14.01,2013-10-14 22:46:00,
2013-10-14 17:51:00,82.6,73.1,29.89,SE,130,6.0,12.0,73,0.00,,---,0.11,VWS V14.01,2013-10-14 22:51:00,
2013-10-14 17:56:00,82.5,73.0,29.88,SSE,159,9.0,9.0,73,0.00,,---,0.11,VWS V14.01,2013-10-14 22:56:00,
2013-10-14 18:01:00,82.4,72.5,29.88,ESE,118,16.0,16.0,72,0.00,,---,0.11,VWS V14.01,2013-10-14 23:01:00,
2013-10-14 18:06:00,82.3,72.4,29.88,SE,134,11.0,11.0,72,0.00,,---,0.11,VWS V14.01,2013-10-14 23:06:00,
2013-10-14 18:11:00,82.2,72.3,29.88,SE,128,5.0,6.0,72,0.00,,---,0.11,VWS V14.01,2013-10-14 23:11:00,
2013-10-14 18:16:00,82.1,72.2,29.88,SE,135,4.0,4.0,72,0.00,,---,0.11,VWS V14.01,2013-10-14 23:16:00,
2013-10-14 18:21:00,82.0,72.5,29.88,SE,133,8.0,8.0,73,0.00,,---,0.11,VWS V14.01,2013-10-14 23:21:00,
2013-10-14 18:26:00,81.7,71.8,29.89,ESE,123,5.0,9.0,72,0.00,,---,0.11,VWS V14.01,2013-10-14 23:26:00,
2013-10-14 18:31:00,81.5,71.6,29.89,SSE,150,3.0,10.0,72,0.00,,---,0.11,VWS V14.01,2013-10-14 23:31:00,
2013-10-14 18:36:00,81.3,71.8,29.89,SE,127,9.0,10.0,73,0.00,,---,0.11,VWS V14.01,2013-10-14 23:36:00,
2013-10-14 18:41:00,81.1,72.0,29.89,SE,130,4.0,6.0,74,0.00,,---,0.11,VWS V14.01,2013-10-14 23:41:00,
2013-10-14 18:46:00,80.9,71.8,29.89,SE,136,10.0,10.0,74,0.00,,---,0.11,VWS V14.01,2013-10-14 23:46:00,
2013-10-14 18:51:00,80.7,71.7,29.89,SE,135,4.0,4.0,74,0.00,,---,0.11,VWS V14.01,2013-10-14 23:51:00,
2013-10-14 18:56:00,80.5,71.5,29.89,SSE,147,2.0,2.0,74,0.00,,---,0.11,VWS V14.01,2013-10-14 23:56:00,
2013-10-14 19:01:00,80.3,71.7,29.88,SSE,155,2.0,5.0,75,0.00,,---,0.11,VWS V14.01,2013-10-15 00:01:00,
2013-10-14 19:06:00,80.2,71.6,29.88,ESE,122,5.0,5.0,75,0.00,,---,0.11,VWS V14.01,2013-10-15 00:06:00,
2013-10-14 19:11:00,80.0,71.8,29.88,SE,133,9.0,9.0,76,0.00,,---,0.11,VWS V14.01,2013-10-15 00:11:00,
2013-10-14 19:16:00,79.8,71.6,29.88,ESE,123,3.0,7.0,76,0.00,,---,0.11,VWS V14.01,2013-10-15 00:16:00,
2013-10-14 19:21:00,79.6,71.8,29.88,SE,130,7.0,8.0,77,0.00,,---,0.11,VWS V14.01,2013-10-15 00:21:00,
2013-10-14 19:26:00,79.5,71.7,29.88,SE,133,8.0,8.0,77,0.00,,---,0.11,VWS V14.01,2013-10-15 00:26:00,
2013-10-14 19:31:00,79.5,71.7,29.88,ESE,113,6.0,6.0,77,0.00,,---,0.11,VWS V14.01,2013-10-15 00:31:00,
2013-10-14 19:36:00,79.4,71.6,29.88,ESE,123,5.0,5.0,77,0.00,,---,0.11,VWS V14.01,2013-10-15 00:36:00,
2013-10-14 19:41:00,79.3,71.8,29.88,SE,146,7.0,11.0,78,0.00,,---,0.11,VWS V14.01,2013-10-15 00:41:00,
2013-10-14 19:46:00,79.3,71.8,29.88,SSE,149,7.0,7.0,78,0.00,,---,0.11,VWS V14.01,2013-10-15 00:46:00,
2013-10-14 19:51:00,79.2,71.8,29.88,SE,142,6.0,6.0,78,0.00,,---,0.11,VWS V14.01,2013-10-15 00:51:00,
2013-10-14 19:56:00,79.3,71.8,29.89,SE,128,6.0,10.0,78,0.00,,---,0.11,VWS V14.01,2013-10-15 00:56:00,
2013-10-14 20:01:00,79.3,71.8,29.89,SE,129,7.0,7.0,78,0.00,,---,0.11,VWS V14.01,2013-10-15 01:01:00,
2013-10-14 20:06:00,79.3,71.8,29.89,SE,137,5.0,9.0,78,0.00,,---,0.11,VWS V14.01,2013-10-15 01:06:00,
2013-10-14 20:11:00,79.4,71.9,29.89,ESE,122,8.0,10.0,78,0.00,,---,0.11,VWS V14.01,2013-10-15 01:11:00,
2013-10-14 20:16:00,79.4,71.9,29.90,SE,133,10.0,10.0,78,0.00,,---,0.11,VWS V14.01,2013-10-15 01:16:00,
2013-10-14 20:21:00,79.4,71.9,29.90,SE,128,2.0,9.0,78,0.00,,---,0.11,VWS V14.01,2013-10-15 01:21:00,
2013-10-14 20:26:00,79.3,71.8,29.90,SE,139,2.0,9.0,78,0.00,,---,0.11,VWS V14.01,2013-10-15 01:26:00,
2013-10-14 20:31:00,79.3,71.8,29.91,SE,142,5.0,7.0,78,0.00,,---,0.11,VWS V14.01,2013-10-15 01:31:00,
2013-10-14 20:36:00,79.3,71.8,29.91,SE,144,10.0,10.0,78,0.00,,---,0.11,VWS V14.01,2013-10-15 01:36:00,
2013-10-14 20:41:00,79.2,71.8,29.91,SE,136,6.0,8.0,78,0.00,,---,0.11,VWS V14.01,2013-10-15 01:41:00,
2013-10-14 20:46:00,79.1,71.7,29.91,SE,125,6.0,10.0,78,0.00,,---,0.11,VWS V14.01,2013-10-15 01:46:00,
2013-10-14 20:51:00,79.1,71.7,29.91,SE,146,3.0,6.0,78,0.00,,---,0.11,VWS V14.01,2013-10-15 01:51:00,
2013-10-14 20:56:00,79.1,71.7,29.91,SE,130,2.0,5.0,78,0.00,,---,0.11,VWS V14.01,2013-10-15 01:56:00,
2013-10-14 21:01:00,78.9,71.5,29.91,ESE,122,2.0,5.0,78,0.00,,---,0.11,VWS V14.01,2013-10-15 02:01:00,
2013-10-14 21:06:00,78.9,71.8,29.91,SE,133,5.0,10.0,79,0.00,,---,0.11,VWS V14.01,2013-10-15 02:06:00,
2013-10-14 21:11:00,78.9,71.8,29.92,ESE,118,2.0,3.0,79,0.00,,---,0.11,VWS V14.01,2013-10-15 02:11:00,
2013-10-14 21:16:00,78.9,71.8,29.92,SE,136,2.0,4.0,79,0.00,,---,0.11,VWS V14.01,2013-10-15 02:16:00,
2013-10-14 21:21:00,78.8,71.7,29.92,East,97,2.0,6.0,79,0.00,,---,0.11,VWS V14.01,2013-10-15 02:21:00,
2013-10-14 21:26:00,78.8,71.7,29.92,SE,133,4.0,5.0,79,0.00,,---,0.11,VWS V14.01,2013-10-15 02:26:00,
2013-10-14 21:31:00,78.7,71.6,29.92,SE,146,11.0,11.0,79,0.00,,---,0.11,VWS V14.01,2013-10-15 02:31:00,
2013-10-14 21:36:00,78.7,71.3,29.92,ESE,121,1.0,4.0,78,0.00,,---,0.11,VWS V14.01,2013-10-15 02:36:00,
2013-10-14 21:41:00,78.6,71.2,29.92,SE,140,5.0,6.0,78,0.00,,---,0.11,VWS V14.01,2013-10-15 02:41:00,
2013-10-14 21:46:00,78.6,71.2,29.93,SE,142,4.0,6.0,78,0.00,,---,0.11,VWS V14.01,2013-10-15 02:46:00,
2013-10-14 21:51:00,78.6,71.2,29.93,ESE,121,3.0,3.0,78,0.00,,---,0.11,VWS V14.01,2013-10-15 02:51:00,
2013-10-14 21:56:00,78.5,71.4,29.93,SE,130,1.0,3.0,79,0.00,,---,0.11,VWS V14.01,2013-10-15 02:56:00,
2013-10-14 22:01:00,78.4,71.3,29.93,SE,129,3.0,6.0,79,0.00,,---,0.11,VWS V14.01,2013-10-15 03:01:00,
2013-10-14 22:06:00,78.4,71.3,29.93,ESE,118,3.0,4.0,79,0.00,,---,0.11,VWS V14.01,2013-10-15 03:06:00,
2013-10-14 22:11:00,78.4,71.3,29.93,SE,133,3.0,5.0,79,0.00,,---,0.11,VWS V14.01,2013-10-15 03:11:00,
2013-10-14 22:16:00,78.3,71.3,29.93,SE,144,2.0,2.0,79,0.00,,---,0.11,VWS V14.01,2013-10-15 03:16:00,
2013-10-14 22:21:00,78.3,71.3,29.93,SE,130,6.0,6.0,79,0.00,,---,0.11,VWS V14.01,2013-10-15 03:21:00,
2013-10-14 22:26:00,78.2,71.2,29.92,SE,133,4.0,4.0,79,0.00,,---,0.11,VWS V14.01,2013-10-15 03:26:00,
2013-10-14 22:31:00,78.2,71.2,29.92,SE,145,4.0,5.0,79,0.00,,---,0.11,VWS V14.01,2013-10-15 03:31:00,
2013-10-14 22:36:00,78.2,70.8,29.92,SE,136,4.0,6.0,78,0.00,,---,0.11,VWS V14.01,2013-10-15 03:36:00,
2013-10-14 22:41:00,78.2,70.8,29.92,SE,140,1.0,2.0,78,0.00,,---,0.11,VWS V14.01,2013-10-15 03:41:00,
2013-10-14 22:46:00,78.3,70.9,29.92,SE,126,5.0,6.0,78,0.00,,---,0.11,VWS V14.01,2013-10-15 03:46:00,
2013-10-14 22:51:00,78.3,70.9,29.92,SE,134,3.0,5.0,78,0.00,,---,0.11,VWS V14.01,2013-10-15 03:51:00,
2013-10-14 22:56:00,78.3,70.9,29.92,SE,134,5.0,6.0,78,0.00,,---,0.11,VWS V14.01,2013-10-15 03:56:00,
2013-10-14 23:01:00,78.2,70.8,29.92,SE,133,4.0,4.0,78,0.00,,---,0.11,VWS V14.01,2013-10-15 04:01:00,
2013-10-14 23:06:00,78.2,70.8,29.93,SE,138,1.0,4.0,78,0.00,,---,0.11,VWS V14.01,2013-10-15 04:06:00,
2013-10-14 23:11:00,78.2,70.8,29.92,SE,130,7.0,7.0,78,0.00,,---,0.11,VWS V14.01,2013-10-15 04:11:00,
2013-10-14 23:16:00,78.2,70.8,29.92,SE,129,3.0,5.0,78,0.00,,---,0.11,VWS V14.01,2013-10-15 04:16:00,
2013-10-14 23:21:00,78.2,70.8,29.92,SE,133,5.0,5.0,78,0.00,,---,0.11,VWS V14.01,2013-10-15 04:21:00,
2013-10-14 23:26:00,78.2,70.8,29.92,SE,140,9.0,9.0,78,0.00,,---,0.11,VWS V14.01,2013-10-15 04:26:00,
2013-10-14 23:31:00,78.1,70.7,29.92,SSE,148,6.0,7.0,78,0.00,,---,0.11,VWS V14.01,2013-10-15 04:31:00,
2013-10-14 23:36:00,78.0,70.6,29.92,SE,137,4.0,5.0,78,0.00,,---,0.11,VWS V14.01,2013-10-15 04:36:00,
2013-10-14 23:41:00,78.1,70.7,29.92,SE,137,4.0,5.0,78,0.00,,---,0.11,VWS V14.01,2013-10-15 04:41:00,
2013-10-14 23:46:00,78.0,70.6,29.92,SE,132,6.0,6.0,78,0.00,,---,0.11,VWS V14.01,2013-10-15 04:46:00,
2013-10-14 23:51:00,78.0,70.6,29.92,SE,146,2.0,6.0,78,0.00,,---,0.11,VWS V14.01,2013-10-15 04:51:00,
2013-10-14 23:56:00,77.9,70.5,29.92,SSE,168,3.0,6.0,78,0.00,,---,0.11,VWS V14.01,2013-10-15 04:56:00,